Volver al catálogo

STARLINK-3458

ActivoComunicacionesVLEO
NORAD 51758·PAYLOAD·🇺🇸 United States

Lanzado Feb 21, 2022 desde Cape Canaveral Space Force Station

Loading…

Próximos Pases (próximas 24 horas)

TLE

ActualizadoSource: CelesTrak SupGP

Época: Sep 15, 2026, 00:54 UTC

1 51758C 22016AW  26258.03798611 -.00010447  00000+0 -29892-3 0  2583
2 51758  53.1573 165.0170 0001281  84.8364 342.0264 15.35401509    12

Sigue STARLINK-3458 en tiempo real con AllMySat

Download on the App Store